Portada
METAR-TAF:

METAR-TAF

Aeroports :

Fairhope, Alabama, Estats Units d'Amèrica

latitud: 30-27-38N, longitud: 087-52-37W, altitud: 28 m

Observació

L'informe es va fer fa 17 minuts, a les 13:15 UTC
Vent calma
Temperatura 18°C
Humitat 100%
Pressió 1020 hPa
Visibilitat: 11.3 km
Núvols disperses a una alçada de 200 ft
Cel cobert a una alçada de 600 ft

METAR: KCQF 271315Z AUTO 00000KT 7SM SCT002 OVC006 18/18 A3011 RMK AO2

Hora: 07:32 (13:32 UTC)


TAF: manca

Observacions i pronòstics meteorològics de més de 4000 aeroports (METAR i TAF).

Les estacions disponibles són els punts grocs i vermells al mapa.

Posi el ratolí al punt desitjat per veure el nom de l'estació.

Feu clic per veure les observacions i els pronòstics meteorològics.

Per canviar el mapa: feu clic els botons verds amb una creu de color negre per apropar; al botó verd amb un guió per allunyar la imatge; o en les fletxes verdes per a mapes adjacents.


METAR-TAF: